This is the latest recevied weather packets stored in our database for station/object OK1KZE-6. If no packets are shown the sender has not sent any weather packets the latest 10 day(s).
| Time | Temp. | Humidity | Pressure | Rain* | Wind** | Luminosity | Snow |
|---|---|---|---|---|---|---|---|
| 1777074909 | 6.67° C | 80% | 1019 hPa | - | - | - | - |
| 1777074609 | 7.22° C | 77% | 1018.9 hPa | - | - | - | - |
| 1777074307 | 7.78° C | 75% | 1018.9 hPa | - | - | - | - |
| 1777074007 | 7.78° C | 76% | 1019.2 hPa | - | - | - | - |
| 1777073708 | 7.78° C | 77% | 1019.2 hPa | - | - | - | - |
| 1777073408 | 7.78° C | 77% | 1019.2 hPa | - | - | - | - |
| 1777073108 | 7.22° C | 78% | 1019.1 hPa | - | - | - | - |
| 1777072809 | 7.22° C | 78% | 1019.3 hPa | - | - | - | - |
| 1777072508 | 7.22° C | 78% | 1019.3 hPa | - | - | - | - |
| 1777072208 | 6.67° C | 80% | 1019.3 hPa | - | - | - | - |
| 1777071908 | 7.22° C | 78% | 1019.4 hPa | - | - | - | - |
| 1777071307 | 7.22° C | 78% | 1019.4 hPa | - | - | - | - |
| 1777071008 | 7.22° C | 78% | 1019.3 hPa | - | - | - | - |
| 1777070709 | 7.78° C | 77% | 1019.5 hPa | - | - | - | - |
| 1777070407 | 7.78° C | 77% | 1019.3 hPa | - | - | - | - |
| 1777070109 | 7.22° C | 78% | 1019.3 hPa | - | - | - | - |
| 1777069808 | 7.22° C | 78% | 1019.5 hPa | - | - | - | - |
| 1777069506 | 7.78° C | 77% | 1019.6 hPa | - | - | - | - |
| 1777069207 | 7.78° C | 77% | 1019.4 hPa | - | - | - | - |
| 1777068907 | 7.78° C | 75% | 1019.5 hPa | - | - | - | - |
| 1777068608 | 7.78° C | 76% | 1019.5 hPa | - | - | - | - |
| 1777068308 | 7.78° C | 76% | 1019.5 hPa | - | - | - | - |
| 1777068008 | 7.78° C | 76% | 1019.4 hPa | - | - | - | - |
| 1777067707 | 7.78° C | 76% | 1019.5 hPa | - | - | - | - |
| 1777067407 | 7.78° C | 76% | 1019.4 hPa | - | - | - | - |
* Rain since midnight (hover to see other rain measurements)
** Current wind speed in m/s (hover to see current wind gust speed)